FW5336 Weather Reports


Display with metric or nautical units.
time (UTC)temp
F
wind
direction
speed
MPH
gust
MPH
rain 1hr
in
rain 24hr
in
rain mn
in
humidity
%
barometer
mb
20260505124915 61 252 3.0 7.0 0.00 0.04 0.04 76
20260505124412 61 273 2.0 3.0 0.00 0.04 0.04 78
20260505123908 61 297 1.0 5.0 0.00 0.04 0.04 78
20260505123405 61 238 1.0 5.0 0.00 0.04 0.04 79
20260505122900 61 270 1.0 6.0 0.00 0.04 0.04 79
20260505122358 60 257 3.0 6.0 0.00 0.04 0.04 81
20260505121854 59 227 1.0 3.0 0.00 0.04 0.04 82
20260505121351 60 248 0.0 3.0 0.00 0.04 0.04 82
20260505120847 60 268 1.0 2.0 0.00 0.04 0.04 82
20260505120344 59 245 2.0 6.0 0.00 0.04 0.04 82
20260505115842 59 220 1.0 7.0 0.00 0.04 0.04 83
20260505115340 59 288 1.0 8.0 0.00 0.04 0.04 83
20260505114838 59 283 2.0 7.0 0.00 0.04 0.04 83
20260505114334 58 347 2.0 6.0 0.00 0.04 0.04 84
20260505113830 58 296 2.0 3.0 0.00 0.04 0.04 84
20260505113327 58 345 1.0 3.0 0.00 0.04 0.04 84
20260505112823 58 232 2.0 2.0 0.00 0.04 0.04 84
20260505112320 58 240 0.0 3.0 0.00 0.04 0.04 84
20260505111816 58 244 0.0 7.0 0.00 0.04 0.04 84
20260505111311 58 256 1.0 2.0 0.00 0.04 0.04 84
20260505110808 58 228 0.0 2.0 0.00 0.04 0.04 84
20260505110305 58 278 0.0 2.0 0.00 0.04 0.04 83
20260505101739 59 211 3.0 8.0 0.00 0.04 0.04 81
20260505101235 59 336 4.0 5.0 0.00 0.04 0.04 81
20260505100732 59 273 3.0 8.0 0.00 0.04 0.04 80
20260505100229 59 250 2.0 7.0 0.00 0.04 0.04 81
20260505095724 59 242 2.0 6.0 0.00 0.04 0.04 80
20260505095222 59 267 4.0 8.0 0.00 0.04 0.04 80
20260505094718 59 282 4.0 6.0 0.00 0.04 0.04 80
20260505094214 59 235 2.0 5.0 0.00 0.04 0.04 80
20260505093711 59 248 5.0 7.0 0.00 0.04 0.04 81
20260505093208 59 241 3.0 6.0 0.00 0.04 0.04 81
20260505092705 59 200 3.0 7.0 0.00 0.04 0.04 82
20260505092204 59 225 3.0 10.0 0.00 0.04 0.04 82
20260505091700 59 284 3.0 3.0 0.00 0.04 0.04 83
20260505091158 59 303 1.0 2.0 0.00 0.04 0.04 83
20260505090655 59 153 5.0 10.0 0.00 0.04 0.04 83
20260505090154 59 218 1.0 3.0 0.00 0.04 0.04 83
20260505085651 59 241 1.0 6.0 0.00 0.04 0.04 83
20260505085149 59 250 1.0 9.0 0.00 0.04 0.04 83
20260505084646 59 245 1.0 6.0 0.00 0.04 0.04 83
20260505084145 59 244 1.0 5.0 0.00 0.04 0.04 82
20260505083642 59 252 1.0 2.0 0.00 0.04 0.04 83
20260505083138 59 251 2.0 8.0 0.00 0.04 0.04 82
20260505082634 59 220 2.0 7.0 0.00 0.04 0.04 82
20260505082131 59 256 0.0 6.0 0.00 0.04 0.04 82
20260505081627 59 252 2.0 5.0 0.00 0.04 0.04 82
20260505081125 59 230 2.0 9.0 0.00 0.04 0.04 83
20260505080621 59 249 2.0 6.0 0.00 0.04 0.04 83
20260505080118 59 226 1.0 5.0 0.00 0.04 0.04 83
20260505075614 59 220 0.0 2.0 0.00 0.04 0.04 83
20260505075111 59 212 0.0 5.0 0.00 0.04 0.04 83
20260505074607 59 246 0.0 5.0 0.00 0.04 0.04 82
20260505074105 59 291 4.0 6.0 0.00 0.04 0.04 82
20260505073602 59 282 3.0 3.0 0.00 0.04 0.04 82
20260505073101 59 287 1.0 3.0 0.00 0.04 0.04 83
20260505072555 59 234 0.0 1.0 0.00 0.04 0.04 83
20260505072052 59 281 2.0 2.0 0.00 0.04 0.04 84
20260505071548 59 254 1.0 2.0 0.00 0.04 0.04 83
20260505071046 59 227 1.0 2.0 0.00 0.04 0.04 83
20260505070543 60 257 1.0 6.0 0.00 0.04 0.04 83
20260505070039 59 190 2.0 6.0 0.00 0.04 0.04 83
20260505065535 59 247 0.0 1.0 0.00 0.04 0.04 84
20260505065032 59 213 3.0 3.0 0.00 0.04 0.04 85
20260505064529 59 328 2.0 3.0 0.00 0.04 0.04 85
20260505064027 59 266 1.0 6.0 0.00 0.04 0.04 86
20260505063524 59 185 1.0 2.0 0.00 0.04 0.04 87
20260505063020 59 254 1.0 2.0 0.00 0.04 0.04 86
20260505062517 59 317 1.0 3.0 0.00 0.04 0.04 86
20260505062014 59 241 1.0 3.0 0.00 0.04 0.04 86
20260505061512 59 57 1.0 5.0 0.00 0.04 0.04 86
20260505061009 59 328 1.0 3.0 0.00 0.04 0.04 87
20260505060507 59 172 2.0 3.0 0.00 0.04 0.04 88
20260505060003 59 293 1.0 2.0 0.00 0.04 0.04 88
20260505055458 58 235 1.0 7.0 0.00 0.04 0.04 90
20260505054955 58 230 1.0 5.0 0.00 0.04 0.04 90
20260505054453 58 265 0.0 1.0 0.00 0.04 0.04 91
20260505053950 58 252 0.0 1.0 0.00 0.04 0.04 90
20260505053447 58 272 3.0 5.0 0.05 0.04 0.04 90
20260505052944 58 133 1.0 5.0 0.05 0.04 0.04 91
20260505052441 58 224 0.0 2.0 0.00 0.03 0.03 91
20260505051938 58 224 2.0 3.0 0.00 0.03 0.03 91
20260505051435 58 203 1.0 1.0 0.00 0.03 0.03 91
20260505050933 59 250 0.0 1.0 0.00 0.03 0.03 90
20260505050431 59 241 0.0 2.0 0.00 0.03 0.03 89
20260505041359 67 302 1.0 2.0 0.00 0.00 0.00 64
20260505040856 66 341 2.0 3.0 0.00 0.00 0.00 65
20260505040354 66 261 0.0 3.0 0.00 0.00 0.00 65
20260505035850 66 264 0.0 2.0 0.00 0.09 0.09 65
20260505035346 66 226 1.0 3.0 0.00 0.09 0.09 66
20260505034843 66 196 1.0 3.0 0.00 0.09 0.09 65
20260505034340 66 200 1.0 5.0 0.00 0.09 0.09 65
20260505033837 66 304 1.0 2.0 0.00 0.09 0.09 66
20260505033334 66 58 1.0 2.0 0.00 0.09 0.09 66
20260505032832 66 259 2.0 2.0 0.00 0.09 0.09 66
20260505032328 66 260 1.0 3.0 0.00 0.09 0.09 66
20260505031826 66 180 2.0 3.0 0.00 0.09 0.09 67
20260505031322 66 258 0.0 2.0 0.00 0.09 0.09 67
20260505030819 66 220 1.0 2.0 0.00 0.09 0.09 68
20260505030315 66 99 0.0 3.0 0.00 0.09 0.09 68
20260505025811 65 333 1.0 5.0 0.00 0.09 0.09 70
20260505025309 64 61 0.0 2.0 0.00 0.09 0.09 73
20260505024807 63 227 1.0 1.0 0.00 0.09 0.09 75
20260505024304 63 258 0.0 0.0 0.00 0.09 0.09 76
20260505023801 62 201 1.0 1.0 0.00 0.09 0.09 77
20260505023258 62 271 0.0 1.0 0.00 0.09 0.09 79
20260505022755 62 244 0.0 1.0 0.00 0.09 0.09 78
20260505022252 62 229 0.0 1.0 0.00 0.09 0.09 78
20260505021749 62 248 0.0 1.0 0.00 0.09 0.09 78
20260505021246 63 244 0.0 1.0 0.00 0.09 0.09 77
20260505020742 63 240 0.0 1.0 0.00 0.09 0.09 76
20260505020237 63 246 0.0 1.0 0.00 0.09 0.09 75
20260505015735 64 175 2.0 2.0 0.00 0.09 0.09 75
20260505015231 64 134 0.0 2.0 0.00 0.09 0.09 74
20260505014728 63 233 2.0 8.0 0.00 0.09 0.09 74
20260505014226 63 314 1.0 2.0 0.00 0.09 0.09 76
20260505013722 63 250 1.0 2.0 0.00 0.09 0.09 78
20260505013219 63 201 0.0 6.0 0.00 0.09 0.09 78
20260505012718 63 256 0.0 2.0 0.00 0.09 0.09 79
20260505012215 62 244 0.0 3.0 0.00 0.09 0.09 80
20260505011710 62 247 0.0 1.0 0.00 0.09 0.09 80
20260505011208 62 247 0.0 2.0 0.00 0.09 0.09 81
20260505010703 62 269 0.0 1.0 0.00 0.09 0.09 83
20260505010200 62 238 0.0 0.0 0.00 0.09 0.09 84
20260505005656 62 233 0.0 1.0 0.00 0.09 0.09 84
20260505005153 62 238 1.0 2.0 0.00 0.09 0.09 83
20260505004650 62 265 4.0 7.0 0.00 0.09 0.09 83
20260505004147 61 288 0.0 7.0 0.00 0.09 0.09 87
20260505003644 61 226 0.0 7.0 0.00 0.09 0.09 89
20260505003142 61 271 0.0 1.0 0.00 0.09 0.09 89
20260505002638 61 269 1.0 1.0 0.00 0.09 0.09 89
20260505002136 61 225 0.0 2.0 0.00 0.09 0.09 88
20260505001633 61 227 0.0 1.0 0.12 0.09 0.09 88
20260505001130 62 239 1.0 2.0 0.42 0.08 0.08 86
20260505000627 64 174 3.0 5.0 0.35 0.07 0.07 80
20260505000125 65 270 3.0 6.0 0.00 0.01 0.01 74
20260504235621 66 233 1.0 2.0 0.00 0.01 0.01 71
20260504235118 66 214 1.0 2.0 0.00 0.01 0.01 70
20260504234615 67 252 3.0 7.0 0.00 0.01 0.01 68
20260504234112 66 300 3.0 11.0 0.00 0.01 0.01 67
20260504233608 68 281 3.0 6.0 0.07 0.01 0.01 67
20260504233104 70 337 5.0 11.0 0.07 0.01 0.01 65
20260504232602 74 234 4.0 5.0 0.00 0.00 0.00 53
20260504232059 74 247 1.0 3.0 0.00 0.00 0.00 49
20260504231555 74 252 1.0 3.0 0.00 0.00 0.00 48
20260504231051 74 243 2.0 5.0 0.00 0.00 0.00 48
20260504230547 75 228 3.0 5.0 0.00 0.00 0.00 48
20260504230047 75 255 1.0 5.0 0.00 0.00 0.00 48
20260504225543 76 244 1.0 7.0 0.00 0.00 0.00 47
20260504225041 76 253 1.0 6.0 0.00 0.00 0.00 46
20260504224537 77 176 2.0 6.0 0.00 0.00 0.00 46
20260504224034 77 292 2.0 5.0 0.00 0.00 0.00 46
20260504223531 77 259 1.0 2.0 0.00 0.00 0.00 46
20260504223027 77 210 1.0 3.0 0.00 0.00 0.00 46
20260504222524 76 302 3.0 7.0 0.00 0.00 0.00 47
20260504222021 77 188 2.0 3.0 0.00 0.00 0.00 47
20260504221518 77 251 1.0 3.0 0.00 0.00 0.00 47
20260504221015 76 216 0.0 5.0 0.00 0.00 0.00 47
20260504220512 77 358 4.0 8.0 0.00 0.00 0.00 45
20260504220009 77 242 3.0 8.0 0.00 0.00 0.00 46
20260504215505 77 236 2.0 5.0 0.00 0.00 0.00 45
20260504215003 77 238 5.0 9.0 0.00 0.00 0.00 45
20260504214458 76 277 3.0 6.0 0.00 0.00 0.00 45
20260504213955 78 137 1.0 8.0 0.00 0.00 0.00 43
20260504213451 78 273 4.0 6.0 0.00 0.00 0.00 41
20260504212949 78 252 2.0 5.0 0.00 0.00 0.00 42
20260504212444 77 205 2.0 5.0 0.00 0.00 0.00 43
20260504211942 76 233 2.0 7.0 0.00 0.00 0.00 43
20260504211438 77 248 1.0 9.0 0.00 0.00 0.00 41
20260504210936 76 244 1.0 5.0 0.00 0.00 0.00 41
20260504210433 77 233 3.0 10.0 0.00 0.00 0.00 40
20260504205930 77 176 5.0 11.0 0.00 0.00 0.00 39
20260504205427 77 248 2.0 11.0 0.00 0.00 0.00 40
20260504204925 78 211 0.0 6.0 0.00 0.00 0.00 38
20260504204423 77 273 2.0 11.0 0.00 0.00 0.00 38
20260504203922 77 15 1.0 10.0 0.00 0.00 0.00 38
20260504203420 77 183 4.0 10.0 0.00 0.00 0.00 36
20260504202915 77 309 2.0 8.0 0.00 0.00 0.00 36
20260504202412 79 234 4.0 13.0 0.00 0.00 0.00 34
20260504201909 78 223 1.0 8.0 0.00 0.00 0.00 35
20260504201406 78 212 1.0 9.0 0.00 0.00 0.00 35
20260504200903 79 272 1.0 9.0 0.00 0.00 0.00 35
20260504200400 78 270 4.0 9.0 0.00 0.00 0.00 34
20260504195857 78 239 4.0 7.0 0.00 0.00 0.00 34
20260504195352 80 213 5.0 10.0 0.00 0.00 0.00 32
20260504194849 80 262 0.0 8.0 0.00 0.00 0.00 34
20260504194345 79 207 3.0 3.0 0.00 0.00 0.00 33
20260504193841 78 53 3.0 7.0 0.00 0.00 0.00 32
20260504193339 78 170 4.0 8.0 0.00 0.00 0.00 32
20260504192838 78 242 1.0 8.0 0.00 0.00 0.00 31
20260504192335 79 276 3.0 14.0 0.00 0.00 0.00 31
20260504191833 79 221 3.0 8.0 0.00 0.00 0.00 31
20260504191330 79 261 1.0 6.0 0.00 0.00 0.00 30
20260504190826 78 259 1.0 5.0 0.00 0.00 0.00 33
20260504190322 78 307 4.0 6.0 0.00 0.00 0.00 32
20260504185819 78 331 5.0 10.0 0.00 0.00 0.00 31
20260504185316 78 250 4.0 8.0 0.00 0.00 0.00 30
20260504184812 79 225 2.0 6.0 0.00 0.00 0.00 29
20260504184308 78 246 3.0 7.0 0.00 0.00 0.00 31
20260504183803 78 11 8.0 11.0 0.00 0.00 0.00 30
20260504183301 77 268 1.0 6.0 0.00 0.00 0.00 31
20260504182759 78 314 4.0 7.0 0.00 0.00 0.00 29
20260504182256 78 215 4.0 9.0 0.00 0.00 0.00 31
20260504181753 78 148 3.0 8.0 0.00 0.00 0.00 31
20260504181250 77 233 2.0 5.0 0.00 0.00 0.00 31
20260504180750 77 181 4.0 10.0 0.00 0.00 0.00 33
20260504180248 77 215 3.0 7.0 0.00 0.00 0.00 33
20260504175745 77 307 2.0 11.0 0.00 0.00 0.00 34
20260504175242 77 177 3.0 5.0 0.00 0.00 0.00 34
20260504174739 77 213 2.0 5.0 0.00 0.00 0.00 34
20260504174237 76 283 5.0 8.0 0.00 0.00 0.00 36
20260504173733 76 267 2.0 11.0 0.00 0.00 0.00 37
20260504173231 77 337 5.0 8.0 0.00 0.00 0.00 36
20260504172727 77 266 4.0 10.0 0.00 0.00 0.00 35
20260504172224 77 252 3.0 6.0 0.00 0.00 0.00 37
20260504171720 76 305 3.0 7.0 0.00 0.00 0.00 39
20260504171217 76 175 3.0 7.0 0.00 0.00 0.00 40
20260504170714 76 257 1.0 3.0 0.00 0.00 0.00 42
20260504170212 77 262 2.0 2.0 0.00 0.00 0.00 41
20260504160130 73 301 4.0 6.0 0.00 0.00 0.00 43
20260504151057 69 316 2.0 5.0 0.00 0.00 0.00 49
20260504150555 69 257 1.0 3.0 0.00 0.00 0.00 50
20260504141020 64 272 2.0 6.0 0.00 0.00 0.00 55
20260504140517 63 207 3.0 6.0 0.00 0.00 0.00 57